Weather History for Medicine Hat, AB

Change the Weather History Date:

Sunday, March 31, 2013

  Actual Average Record
Temperature  
Mean Temperature 14 °F -  
Max Temperature 53 °F 56 °F 69 °F (2012)
Min Temperature -26 °F 31 °F 12 °F (2014)
Degree Days  
Heating Degree Days 52    
Moisture  
Dew Point 15 °F    
Average Humidity 56    
Maximum Humidity 80    
Minimum Humidity 30    
Precipitation  
Precipitation 0.00 in 0.03 in - ()
Sea Level Pressure  
Sea Level Pressure 30.18 in    
Wind  
Wind Speed 7 mph ()    
Max Wind Speed 22 mph    
Max Gust Speed 24 mph    
Visibility 9.6 miles    
Events      
Averages and records for this station are not official NWS values.
T = Trace of Precipitation, MM = Missing Value Source: Averaged Metar Reports

Daily Weather History Graph

Daily Weather History Graph

Search for Another Location

Airport:

Trip Planner

Search our weather history database for the weather conditions in past years. The results will help you decide how hot, cold, wet, or windy it might be!

Date:

Astronomy

Mar. 31, 2013 Rise Set
Actual Time 7:00 AM MDT 7:53 PM MDT
Civil Twilight 6:28 AM MDT 8:26 PM MDT
Nautical Twilight 5:48 AM MDT 9:06 PM MDT
Astronomical Twilight 5:07 AM MDT 9:48 PM MDT
Moon 12:27 AM MDT (3/31) 9:26 AM MDT (3/31)
Length of Visible Light 13h 58m
Length of Day
12h 52m
Waning Gibbous, 77% of the Moon is Illuminated
Mar 31
Waning Gibbous
Apr 2
Last Quarter
Apr 10
New
Apr 18
First Quarter
Apr 25
Full

Hourly Weather History & Observations

Time (MDT) Temp. Windchill Dew Point Humidity Pressure Visibility Wind Dir Wind Speed Gust Speed Precip Events Conditions
12:00 AM -23 °F - -28 °F 66% 30.31 in - North 4.6 mph - -  
12:00 AM 35.6 °F 29.2 °F 23.0 °F 60% 30.06 in 9.0 mi East 8.1 mph - N/A   Partly Cloudy
1:00 AM 32.0 °F 25.6 °F 23.0 °F 69% 30.05 in 9.0 mi ENE 6.9 mph - N/A   Clear
2:00 AM 32.0 °F 24.2 °F 23.0 °F 69% 30.04 in 9.0 mi ENE 9.2 mph - N/A   Clear
3:00 AM 28.4 °F 22.2 °F 23.0 °F 80% 30.04 in 9.0 mi NE 5.8 mph - N/A   Scattered Clouds
4:00 AM 30.2 °F 20.8 °F 23.0 °F 75% 30.05 in 9.0 mi ENE 11.5 mph - N/A   Scattered Clouds
5:00 AM 32.0 °F 24.2 °F 21.2 °F 64% 30.09 in 9.0 mi ENE 9.2 mph - N/A   Overcast
6:00 AM -26 °F - -31 °F 63% 30.26 in - NNW 8.1 mph - -  
6:00 AM 28.4 °F 23.3 °F 19.4 °F 69% 30.12 in 9.0 mi NNE 4.6 mph - N/A   Scattered Clouds
7:00 AM 30.2 °F 21.9 °F 19.4 °F 64% 30.15 in 30.0 mi North 9.2 mph - N/A   Mostly Cloudy
8:00 AM 32.0 °F 26.4 °F 19.4 °F 60% 30.17 in 30.0 mi NE 5.8 mph - N/A   Scattered Clouds
9:00 AM 33.8 °F 27.7 °F 19.4 °F 56% 30.22 in 30.0 mi North 6.9 mph - N/A   Mostly Cloudy
10:00 AM 37.4 °F 33.8 °F 21.2 °F 52% 30.23 in 30.0 mi NW 4.6 mph - N/A   Mostly Cloudy
11:00 AM 41.0 °F 36.4 °F 21.2 °F 45% 30.24 in 30.0 mi NNW 6.9 mph - N/A   Scattered Clouds
12:00 PM -21 °F - -26 °F 63% 30.17 in - NNW 21.9 mph - -  
12:00 PM 44.6 °F 43.1 °F 21.2 °F 39% 30.25 in 30.0 mi West 3.5 mph - N/A   Scattered Clouds
1:00 PM 46.4 °F 42.9 °F 21.2 °F 37% 30.25 in 30.0 mi NNW 6.9 mph - N/A   Scattered Clouds
2:00 PM 50.0 °F - 21.2 °F 32% 30.23 in 30.0 mi NW 8.1 mph - N/A   Mostly Cloudy
3:00 PM 51.8 °F - 23.0 °F 33% 30.22 in 30.0 mi NNW 17.3 mph 24.2 mph N/A   Mostly Cloudy
4:00 PM 53.6 °F - 23.0 °F 30% 30.21 in 30.0 mi NNW 13.8 mph - N/A   Mostly Cloudy
5:00 PM 50.0 °F - 24.8 °F 37% 30.21 in 30.0 mi NNW 13.8 mph 21.9 mph N/A   Mostly Cloudy
6:00 PM -21 °F - -26 °F 67% 30.14 in - NNW 17.3 mph - -  
6:00 PM 48.2 °F - 24.8 °F 40% 30.21 in 30.0 mi NW 11.5 mph 17.3 mph N/A   Scattered Clouds
7:00 PM 46.4 °F 41.9 °F 24.8 °F 43% 30.21 in 30.0 mi NNW 9.2 mph - N/A   Partly Cloudy
8:00 PM 42.8 °F 38.0 °F 24.8 °F 49% 30.22 in 30.0 mi North 8.1 mph - N/A   Partly Cloudy
9:00 PM 37.4 °F 31.4 °F 26.6 °F 65% 30.22 in 15.0 mi NNE 8.1 mph - N/A   Partly Cloudy
10:00 PM 33.8 °F 27.0 °F 26.6 °F 75% 30.24 in 9.0 mi ENE 8.1 mph - N/A   Clear
11:00 PM 32.0 °F 28.7 °F 24.8 °F 75% 30.24 in 9.0 mi ENE 3.5 mph - N/A   Clear